RYR719 LFOB-EGBB

Flight info

Callsign RYR719
Flight time 0h 54m
Altitude 26000
Route OPALE DCT KESAX DCT DIMAL DCT ALESO T420 HEMEL
Aircraft B738/M-SDE2E3FGHIRWXY/LB1

Departure

Time 2026-04-22 19:12
Airport Beauvais-Tillé airport (LFOB)

Arrival

Time 2026-04-22 20:06
Airport Birmingham Airport (EGBB)
Time Latitude Longitude Altitude Speed Heading
2026-04-22 18:53 49.45803 2.11171 346 ft 0 kts 34°
2026-04-22 19:06 49.45793 2.11161 330 ft 4 kts 34°
2026-04-22 19:07 49.45747 2.11143 354 ft 4 kts 323°
2026-04-22 19:07 49.45735 2.11163 357 ft 1 kts 303°
2026-04-22 19:07 49.45733 2.11167 356 ft 0 kts 303°
2026-04-22 19:09 49.45733 2.11166 356 ft 1 kts 303°
2026-04-22 19:09 49.45744 2.11142 357 ft 4 kts 304°
2026-04-22 19:09 49.45758 2.11109 348 ft 4 kts 304°
2026-04-22 19:10 49.45772 2.11077 352 ft 4 kts 304°
2026-04-22 19:10 49.45785 2.11045 352 ft 3 kts 300°
2026-04-22 19:10 49.45789 2.11009 352 ft 4 kts 262°
2026-04-22 19:10 49.45765 2.10971 349 ft 8 kts 211°
2026-04-22 19:11 49.45699 2.10916 351 ft 13 kts 208°
2026-04-22 19:11 49.45635 2.10873 355 ft 9 kts 178°
2026-04-22 19:11 49.45590 2.10941 351 ft 13 kts 124°
2026-04-22 19:11 49.45395 2.11392 336 ft 90 kts 123°
2026-04-22 19:12 49.44920 2.12478 350 ft 151 kts 123°
2026-04-22 19:12 49.44280 2.13852 879 ft 161 kts 124°
2026-04-22 19:12 49.43673 2.15279 1721 ft 158 kts 104°
2026-04-22 19:12 49.43826 2.17045 2004 ft 191 kts 60°
2026-04-22 19:13 49.44957 2.18312 2469 ft 201 kts 31°
2026-04-22 19:13 49.46159 2.19088 3629 ft 184 kts 21°
2026-04-22 19:13 49.47508 2.19047 4101 ft 213 kts 349°
2026-04-22 19:13 49.48858 2.17791 4289 ft 244 kts 317°
2026-04-22 19:14 49.49977 2.15690 4606 ft 260 kts 310°
2026-04-22 19:14 49.51135 2.13407 4848 ft 282 kts 309°
2026-04-22 19:14 49.52358 2.10978 5485 ft 289 kts 308°
2026-04-22 19:14 49.53639 2.08579 6289 ft 291 kts 319°
2026-04-22 19:15 49.54560 2.07562 6734 ft 289 kts 335°
2026-04-22 19:15 49.56990 2.06098 7805 ft 288 kts 344°
2026-04-22 19:15 49.58900 2.05102 8601 ft 291 kts 344°
2026-04-22 19:15 49.60822 2.04108 9465 ft 292 kts 344°
2026-04-22 19:16 49.62758 2.03101 10321 ft 295 kts 344°
2026-04-22 19:16 49.64741 2.02062 10797 ft 312 kts 344°
2026-04-22 19:16 49.66876 2.00940 10991 ft 337 kts 344°
2026-04-22 19:16 49.69148 1.99734 11420 ft 351 kts 343°
2026-04-22 19:17 49.71477 1.98487 12144 ft 355 kts 343°
2026-04-22 19:17 49.73817 1.97229 12964 ft 358 kts 344°
2026-04-22 19:17 49.76188 1.95953 13769 ft 362 kts 344°
2026-04-22 19:17 49.78574 1.94668 14570 ft 365 kts 344°
2026-04-22 19:18 49.80981 1.93371 15346 ft 368 kts 344°
2026-04-22 19:18 49.83404 1.92065 16154 ft 370 kts 344°
2026-04-22 19:18 49.85844 1.90749 16957 ft 373 kts 344°
2026-04-22 19:18 49.88304 1.89421 17747 ft 376 kts 343°
2026-04-22 19:19 49.90719 1.87795 18487 ft 384 kts 329°
2026-04-22 19:19 49.92811 1.85266 19197 ft 387 kts 323°
2026-04-22 19:19 49.94913 1.82576 20012 ft 386 kts 323°
2026-04-22 19:19 49.96963 1.79980 20768 ft 385 kts 323°
2026-04-22 19:20 49.99052 1.77365 21481 ft 386 kts 324°
2026-04-22 19:20 50.01149 1.74765 22233 ft 386 kts 324°
2026-04-22 19:20 50.03246 1.72172 23003 ft 384 kts 324°
2026-04-22 19:20 50.05324 1.69601 23984 ft 377 kts 324°
2026-04-22 19:21 50.07410 1.67241 24867 ft 367 kts 330°
2026-04-22 19:21 50.09659 1.65433 25609 ft 362 kts 336°
2026-04-22 19:21 50.11949 1.63797 26135 ft 364 kts 336°
2026-04-22 19:21 50.14248 1.62164 26252 ft 363 kts 336°
2026-04-22 19:22 50.16547 1.60524 26285 ft 364 kts 336°
2026-04-22 19:22 50.18847 1.58872 26287 ft 365 kts 336°
2026-04-22 19:22 50.21155 1.57204 26290 ft 367 kts 336°
2026-04-22 19:22 50.23473 1.55522 26302 ft 368 kts 336°
2026-04-22 19:23 50.25802 1.53828 26301 ft 369 kts 336°
2026-04-22 19:23 50.28129 1.52131 26299 ft 370 kts 336°
2026-04-22 19:23 50.30462 1.50427 26296 ft 370 kts 336°
2026-04-22 19:23 50.32790 1.48725 26295 ft 369 kts 336°
2026-04-22 19:24 50.35113 1.47024 26297 ft 369 kts 336°
2026-04-22 19:24 50.37432 1.45325 26296 ft 368 kts 336°
2026-04-22 19:24 50.39751 1.43625 26294 ft 367 kts 336°
2026-04-22 19:24 50.42062 1.41928 26291 ft 367 kts 336°
2026-04-22 19:25 50.44373 1.40230 26289 ft 367 kts 336°
2026-04-22 19:25 50.46687 1.38528 26278 ft 367 kts 335°
2026-04-22 19:25 50.48889 1.36516 26292 ft 367 kts 327°
2026-04-22 19:25 50.50881 1.33997 26302 ft 369 kts 318°
2026-04-22 19:26 50.52619 1.31087 26302 ft 370 kts 315°
2026-04-22 19:26 50.54368 1.28049 26301 ft 370 kts 315°
2026-04-22 19:26 50.56083 1.25095 26300 ft 370 kts 315°
2026-04-22 19:26 50.57846 1.22084 26299 ft 370 kts 316°
2026-04-22 19:27 50.59608 1.19210 26305 ft 369 kts 317°
2026-04-22 19:27 50.61449 1.16315 26312 ft 369 kts 318°
2026-04-22 19:27 50.63246 1.13511 26317 ft 369 kts 318°
2026-04-22 19:27 50.65067 1.10663 26313 ft 369 kts 317°
2026-04-22 19:28 50.66888 1.07800 26318 ft 370 kts 317°
2026-04-22 19:28 50.68711 1.04919 26327 ft 371 kts 317°
2026-04-22 19:28 50.70531 1.02035 26334 ft 372 kts 317°
2026-04-22 19:28 50.72358 0.99136 26338 ft 372 kts 317°
2026-04-22 19:29 50.74183 0.96240 26336 ft 373 kts 317°
2026-04-22 19:29 50.76013 0.93326 26295 ft 373 kts 317°
2026-04-22 19:29 50.77838 0.90412 26311 ft 373 kts 317°
2026-04-22 19:29 50.79659 0.87497 26316 ft 373 kts 317°
2026-04-22 19:30 50.80274 0.86511 26320 ft 373 kts 317°
2026-04-22 19:30 50.83301 0.81663 26325 ft 372 kts 317°
2026-04-22 19:30 50.85120 0.78747 26330 ft 372 kts 317°
2026-04-22 19:30 50.86938 0.75834 26330 ft 372 kts 317°
2026-04-22 19:31 50.88763 0.72924 26347 ft 372 kts 317°
2026-04-22 19:31 50.90587 0.70017 26359 ft 372 kts 317°
2026-04-22 19:31 50.92408 0.67109 26385 ft 372 kts 317°
2026-04-22 19:31 50.94229 0.64197 26397 ft 372 kts 317°
2026-04-22 19:32 50.96051 0.61277 26410 ft 372 kts 317°
2026-04-22 19:32 50.97866 0.58346 26445 ft 373 kts 317°
2026-04-22 19:32 50.99674 0.55398 26459 ft 373 kts 317°
2026-04-22 19:32 51.01481 0.52441 26477 ft 373 kts 317°
2026-04-22 19:33 51.03289 0.49486 26497 ft 373 kts 317°
2026-04-22 19:33 51.05099 0.46525 26484 ft 373 kts 316°
2026-04-22 19:33 51.06296 0.44566 26513 ft 373 kts 316°
2026-04-22 19:33 51.08752 0.40667 26535 ft 374 kts 318°
2026-04-22 19:34 51.10022 0.38738 26540 ft 374 kts 319°
2026-04-22 19:34 51.11917 0.35890 26538 ft 375 kts 319°
2026-04-22 19:34 51.13790 0.33073 26538 ft 375 kts 319°
2026-04-22 19:34 51.15685 0.30209 26539 ft 376 kts 318°
2026-04-22 19:35 51.17579 0.27332 26531 ft 376 kts 318°
2026-04-22 19:35 51.19495 0.24408 26520 ft 376 kts 318°
2026-04-22 19:35 51.21385 0.21516 26501 ft 376 kts 318°
2026-04-22 19:35 51.23244 0.18666 26485 ft 376 kts 318°
2026-04-22 19:36 51.25128 0.15775 26470 ft 375 kts 318°
2026-04-22 19:36 51.27006 0.12890 26462 ft 375 kts 318°
2026-04-22 19:36 51.28886 0.09998 26437 ft 375 kts 318°
2026-04-22 19:36 51.30761 0.07111 26420 ft 375 kts 318°
2026-04-22 19:37 51.32658 0.04246 26404 ft 374 kts 321°
2026-04-22 19:37 51.34753 0.01803 26373 ft 372 kts 330°
2026-04-22 19:37 51.36979 -0.00303 26361 ft 372 kts 331°
2026-04-22 19:37 51.39222 -0.02390 26334 ft 373 kts 330°
2026-04-22 19:38 51.41471 -0.04487 26345 ft 375 kts 330°
2026-04-22 19:38 51.43753 -0.06630 26356 ft 377 kts 330°
2026-04-22 19:38 51.46017 -0.08770 26362 ft 378 kts 330°
2026-04-22 19:38 51.48260 -0.10900 26359 ft 380 kts 330°
2026-04-22 19:39 51.50560 -0.13093 26354 ft 381 kts 330°
2026-04-22 19:39 51.52813 -0.15245 26351 ft 381 kts 330°
2026-04-22 19:39 51.55083 -0.17418 26294 ft 376 kts 330°
2026-04-22 19:39 51.57300 -0.19543 26342 ft 369 kts 330°
2026-04-22 19:40 51.59525 -0.21677 26329 ft 368 kts 330°
2026-04-22 19:40 51.61681 -0.23745 26307 ft 364 kts 330°
2026-04-22 19:40 51.63863 -0.25841 25995 ft 369 kts 330°
2026-04-22 19:40 51.66088 -0.27980 25449 ft 371 kts 330°
2026-04-22 19:41 51.68311 -0.30112 24941 ft 370 kts 330°
2026-04-22 19:41 51.70518 -0.32223 24488 ft 368 kts 330°
2026-04-22 19:41 51.72709 -0.34320 24049 ft 365 kts 330°
2026-04-22 19:41 51.74891 -0.36412 23552 ft 363 kts 330°
2026-04-22 19:42 51.77052 -0.38486 23093 ft 360 kts 330°
2026-04-22 19:42 51.79197 -0.40547 22580 ft 357 kts 331°
2026-04-22 19:42 51.81317 -0.42591 22200 ft 352 kts 331°
2026-04-22 19:42 51.83401 -0.44621 21901 ft 349 kts 330°
2026-04-22 19:43 51.87547 -0.48679 21306 ft 352 kts 330°
2026-04-22 19:43 51.89657 -0.50745 21008 ft 357 kts 330°
2026-04-22 19:43 51.91790 -0.52838 20688 ft 358 kts 331°
2026-04-22 19:44 51.93915 -0.54922 20375 ft 357 kts 330°
2026-04-22 19:44 51.96041 -0.57004 20064 ft 357 kts 330°
2026-04-22 19:44 51.98174 -0.59088 19757 ft 357 kts 330°
2026-04-22 19:44 52.00303 -0.61168 19448 ft 358 kts 330°
2026-04-22 19:45 52.02444 -0.63263 19137 ft 359 kts 329°
2026-04-22 19:45 52.04588 -0.65364 18824 ft 361 kts 329°
2026-04-22 19:45 52.06743 -0.67478 18487 ft 362 kts 329°
2026-04-22 19:45 52.08898 -0.69597 18139 ft 362 kts 329°
2026-04-22 19:46 52.11054 -0.71718 17810 ft 360 kts 329°
2026-04-22 19:46 52.13190 -0.73823 17475 ft 358 kts 329°
2026-04-22 19:46 52.15315 -0.75919 17168 ft 356 kts 329°
2026-04-22 19:46 52.17424 -0.78000 16861 ft 355 kts 329°
2026-04-22 19:47 52.19533 -0.80084 16557 ft 353 kts 329°
2026-04-22 19:47 52.21628 -0.82158 16252 ft 352 kts 329°
2026-04-22 19:47 52.23631 -0.84443 15922 ft 352 kts 314°
2026-04-22 19:47 52.25003 -0.87695 15631 ft 343 kts 292°
2026-04-22 19:48 52.25667 -0.91333 15345 ft 327 kts 281°
2026-04-22 19:48 52.26151 -0.94896 15068 ft 316 kts 279°
2026-04-22 19:48 52.26600 -0.98349 14801 ft 308 kts 279°
2026-04-22 19:48 52.27041 -1.01736 14554 ft 303 kts 280°
2026-04-22 19:49 52.27483 -1.05090 14298 ft 302 kts 280°
2026-04-22 19:49 52.27932 -1.08454 14017 ft 305 kts 280°
2026-04-22 19:49 52.28388 -1.11845 13738 ft 305 kts 280°
2026-04-22 19:49 52.28843 -1.15210 13463 ft 301 kts 280°
2026-04-22 19:50 52.29292 -1.18521 13184 ft 296 kts 280°
2026-04-22 19:50 52.29733 -1.21782 12922 ft 292 kts 280°
2026-04-22 19:50 52.30171 -1.25021 12677 ft 292 kts 280°
2026-04-22 19:50 52.30607 -1.28256 12426 ft 291 kts 280°
2026-04-22 19:51 52.31041 -1.31487 12176 ft 291 kts 280°
2026-04-22 19:51 52.31473 -1.34707 11927 ft 290 kts 280°
2026-04-22 19:51 52.31903 -1.37927 11672 ft 290 kts 280°
2026-04-22 19:51 52.32329 -1.41116 11417 ft 290 kts 280°
2026-04-22 19:52 52.32764 -1.44383 11165 ft 290 kts 280°
2026-04-22 19:52 52.33193 -1.47610 10909 ft 290 kts 280°
2026-04-22 19:52 52.33614 -1.50791 10664 ft 290 kts 280°
2026-04-22 19:52 52.34041 -1.54011 10362 ft 289 kts 280°
2026-04-22 19:53 52.34466 -1.57221 10096 ft 288 kts 280°
2026-04-22 19:53 52.34886 -1.60413 9801 ft 287 kts 280°
2026-04-22 19:53 52.35305 -1.63597 9566 ft 285 kts 280°
2026-04-22 19:53 52.35680 -1.66766 9335 ft 281 kts 272°
2026-04-22 19:54 52.35702 -1.69899 9201 ft 275 kts 269°
2026-04-22 19:54 52.36083 -1.73002 8900 ft 281 kts 285°
2026-04-22 19:54 52.36657 -1.76063 8511 ft 286 kts 284°
2026-04-22 19:54 52.37214 -1.79246 8123 ft 283 kts 283°
2026-04-22 19:55 52.37714 -1.82257 7806 ft 275 kts 283°
2026-04-22 19:55 52.38196 -1.85273 7370 ft 274 kts 282°
2026-04-22 19:55 52.38782 -1.88281 6908 ft 274 kts 294°
2026-04-22 19:55 52.39707 -1.91006 6487 ft 273 kts 299°
2026-04-22 19:56 52.40681 -1.93665 6101 ft 271 kts 300°
2026-04-22 19:56 52.41651 -1.96298 5716 ft 268 kts 300°
2026-04-22 19:56 52.42616 -1.98843 5346 ft 266 kts 305°
2026-04-22 19:56 52.43920 -2.00893 5286 ft 251 kts 321°
2026-04-22 19:57 52.45272 -2.02725 5267 ft 251 kts 320°
2026-04-22 19:57 52.46592 -2.04540 5293 ft 243 kts 320°
2026-04-22 19:57 52.47854 -2.06281 5279 ft 234 kts 320°
2026-04-22 19:57 52.49091 -2.07991 5264 ft 232 kts 320°
2026-04-22 19:58 52.50433 -2.09509 4970 ft 237 kts 341°
2026-04-22 19:58 52.51999 -2.10187 4670 ft 229 kts 360°
2026-04-22 19:58 52.53474 -2.09749 4534 ft 204 kts 31°
2026-04-22 19:58 52.54749 -2.08809 4548 ft 200 kts 30°
2026-04-22 19:59 52.56008 -2.07891 4562 ft 196 kts 34°
2026-04-22 20:00 52.59987 -1.98211 3835 ft 155 kts 90°
2026-04-22 20:00 52.60068 -1.96434 3676 ft 156 kts 90°
2026-04-22 20:01 52.60152 -1.94651 3522 ft 157 kts 90°
2026-04-22 20:01 52.60218 -1.92861 3368 ft 158 kts 96°
2026-04-22 20:01 52.59755 -1.91214 3218 ft 171 kts 137°
2026-04-22 20:01 52.58777 -1.90046 3118 ft 176 kts 136°
2026-04-22 20:02 52.57881 -1.88741 3029 ft 166 kts 139°
2026-04-22 20:02 52.56965 -1.87689 2895 ft 156 kts 141°
2026-04-22 20:02 52.56081 -1.86711 2712 ft 149 kts 140°
2026-04-22 20:02 52.55333 -1.85881 2538 ft 146 kts 140°
2026-04-22 20:03 52.54506 -1.84960 2332 ft 146 kts 139°
2026-04-22 20:03 52.53667 -1.84026 2126 ft 145 kts 139°
2026-04-22 20:03 52.52873 -1.83146 1956 ft 129 kts 139°
2026-04-22 20:03 52.52161 -1.82352 1796 ft 122 kts 138°
2026-04-22 20:04 52.51444 -1.81548 1606 ft 125 kts 139°
2026-04-22 20:04 52.50723 -1.80748 1426 ft 124 kts 140°
2026-04-22 20:04 52.50002 -1.79945 1257 ft 128 kts 139°
2026-04-22 20:04 52.49251 -1.79106 1061 ft 132 kts 141°
2026-04-22 20:05 52.48496 -1.78268 870 ft 130 kts 141°
2026-04-22 20:05 52.47751 -1.77436 706 ft 130 kts 140°
2026-04-22 20:05 52.46994 -1.76594 518 ft 133 kts 141°
2026-04-22 20:05 52.46226 -1.75741 332 ft 131 kts 139°
2026-04-22 20:06 52.45552 -1.74985 320 ft 101 kts 146°
2026-04-22 20:06 52.45092 -1.74474 327 ft 54 kts 146°
2026-04-22 20:06 52.44948 -1.74263 325 ft 21 kts 92°
2026-04-22 20:06 52.44976 -1.74056 325 ft 18 kts 76°
2026-04-22 20:07 52.44991 -1.73957 323 ft 8 kts 74°
2026-04-22 20:07 52.45020 -1.73871 322 ft 10 kts 57°
2026-04-22 20:07 52.45068 -1.73773 322 ft 12 kts 31°
2026-04-22 20:07 52.45140 -1.73815 321 ft 11 kts 322°
2026-04-22 20:08 52.45204 -1.73890 322 ft 11 kts 326°
2026-04-22 20:08 52.45267 -1.73959 322 ft 11 kts 327°
2026-04-22 20:08 52.45330 -1.73936 321 ft 10 kts 50°
2026-04-22 20:08 52.45343 -1.73904 322 ft 10 kts 56°
2026-04-22 20:09 52.45309 -1.73733 321 ft 2 kts 148°
2026-04-22 20:09 52.45309 -1.73732 321 ft 0 kts 147°
2026-04-22 20:10 52.45309 -1.73733 321 ft 0 kts 147°